| time (UTC) | temp F | wind direction | speed MPH | gust MPH | rain 1hr in | rain 24hr in | rain mn in | humidity % | barometer mb |
| 20260506214525 | 79 | 256 | 3.0 | 6.0 | 0.00 | 0.00 | 0.00 | 14 | 1008.5 |
| 20260506214033 | 79 | 294 | 2.0 | 7.0 | 0.00 | 0.00 | 0.00 | 15 | 1008.5 |
| 20260506213528 | 79 | 169 | 2.0 | 12.0 | 0.00 | 0.00 | 0.00 | 15 | 1008.6 |
| 20260506213024 | 79 | 276 | 4.0 | 12.0 | 0.00 | 0.00 | 0.00 | 14 | 1008.8 |
| 20260506212537 | 79 | 242 | 2.0 | 7.0 | 0.00 | 0.00 | 0.00 | 14 | 1008.7 |
| 20260506212030 | 79 | 249 | 2.0 | 5.0 | 0.00 | 0.00 | 0.00 | 16 | 1008.8 |
| 20260506211524 | 79 | 98 | 1.0 | 9.0 | 0.00 | 0.00 | 0.00 | 16 | 1008.7 |
| 20260506211036 | 79 | 253 | 3.0 | 9.0 | 0.00 | 0.00 | 0.00 | 16 | 1008.9 |
| 20260506210534 | 79 | 194 | 2.0 | 6.0 | 0.00 | 0.00 | 0.00 | 17 | 1009.0 |
| 20260506210045 | 79 | 267 | 2.0 | 6.0 | 0.00 | 0.00 | 0.00 | 18 | 1008.9 |
| 20260506205534 | 78 | 285 | 1.0 | 6.0 | 0.00 | 0.00 | 0.00 | 17 | 1009.0 |
| 20260506205032 | 78 | 242 | 2.0 | 6.0 | 0.00 | 0.00 | 0.00 | 17 | 1009.1 |
| 20260506204526 | 78 | 156 | 1.0 | 10.0 | 0.00 | 0.00 | 0.00 | 18 | 1009.1 |
| 20260506204022 | 78 | 238 | 4.0 | 10.0 | 0.00 | 0.00 | 0.00 | 17 | 1008.9 |
| 20260506203533 | 78 | 155 | 2.0 | 9.0 | 0.00 | 0.00 | 0.00 | 18 | 1009.2 |
| 20260506203025 | 78 | 198 | 3.0 | 9.0 | 0.00 | 0.00 | 0.00 | 20 | 1009.2 |
| 20260506202536 | 78 | 88 | 2.0 | 8.0 | 0.00 | 0.00 | 0.00 | 19 | 1009.3 |
| 20260506202032 | 78 | 278 | 2.0 | 7.0 | 0.00 | 0.00 | 0.00 | 20 | 1009.2 |
| 20260506201526 | 78 | 131 | 2.0 | 7.0 | 0.00 | 0.00 | 0.00 | 20 | 1009.3 |
| 20260506201036 | 78 | 123 | 1.0 | 11.0 | 0.00 | 0.00 | 0.00 | 19 | 1009.3 |
| 20260506200531 | 78 | 323 | 0.0 | 11.0 | 0.00 | 0.00 | 0.00 | 20 | 1009.5 |
| 20260506200027 | 78 | 227 | 3.0 | 11.0 | 0.00 | 0.00 | 0.00 | 19 | 1009.6 |
| 20260506195537 | 78 | 226 | 1.0 | 7.0 | 0.00 | 0.00 | 0.00 | 21 | 1009.5 |
| 20260506194535 | 76 | 143 | 0.0 | 12.0 | 0.00 | 0.00 | 0.00 | 20 | 1009.7 |
| 20260506194044 | 76 | 248 | 3.0 | 12.0 | 0.00 | 0.00 | 0.00 | 21 | 1009.8 |
| 20260506193534 | 76 | 249 | 1.0 | 8.0 | 0.00 | 0.00 | 0.00 | 22 | 1009.7 |
| 20260506193033 | 76 | 259 | 2.0 | 8.0 | 0.00 | 0.00 | 0.00 | 22 | 1009.9 |
| 20260506192533 | 76 | 231 | 0.0 | 4.0 | 0.00 | 0.00 | 0.00 | 22 | 1010.0 |
| 20260506192028 | 76 | 277 | 0.0 | 7.0 | 0.00 | 0.00 | 0.00 | 26 | 1010.0 |
| 20260506191525 | 75 | 116 | 1.0 | 6.0 | 0.00 | 0.00 | 0.00 | 24 | 1010.1 |
| 20260506191034 | 75 | 143 | 2.0 | 9.0 | 0.00 | 0.00 | 0.00 | 24 | 1010.1 |
| 20260506190529 | 74 | 269 | 1.0 | 9.0 | 0.00 | 0.00 | 0.00 | 24 | 1010.3 |
| 20260506190030 | 74 | 255 | 2.0 | 6.0 | 0.00 | 0.00 | 0.00 | 24 | 1010.3 |
| 20260506185534 | 75 | 252 | 2.0 | 6.0 | 0.00 | 0.00 | 0.00 | 24 | 1010.4 |
| 20260506185031 | 75 | 77 | 1.0 | 7.0 | 0.00 | 0.00 | 0.00 | 25 | 1010.5 |
| 20260506184535 | 75 | 328 | 3.0 | 8.0 | 0.00 | 0.00 | 0.00 | 24 | 1010.5 |
| 20260506184038 | 75 | 274 | 2.0 | 6.0 | 0.00 | 0.00 | 0.00 | 26 | 1010.5 |
| 20260506183529 | 75 | 250 | 0.0 | 5.0 | 0.00 | 0.00 | 0.00 | 24 | 1010.5 |
| 20260506183026 | 74 | 252 | 0.0 | 9.0 | 0.00 | 0.00 | 0.00 | 27 | 1010.6 |
| 20260506182521 | 74 | 205 | 2.0 | 11.0 | 0.00 | 0.00 | 0.00 | 26 | 1010.6 |
| 20260506182031 | 73 | 255 | 3.0 | 11.0 | 0.00 | 0.00 | 0.00 | 26 | 1010.7 |
| 20260506181536 | 73 | 156 | 2.0 | 8.0 | 0.00 | 0.00 | 0.00 | 28 | 1010.8 |
| 20260506181028 | 73 | 283 | 2.0 | 8.0 | 0.00 | 0.00 | 0.00 | 26 | 1010.8 |
| 20260506180538 | 74 | 193 | 2.0 | 6.0 | 0.00 | 0.00 | 0.00 | 26 | 1010.9 |
| 20260506180042 | 73 | 173 | 2.0 | 6.0 | 0.00 | 0.00 | 0.00 | 26 | 1010.9 |
| 20260506175525 | 72 | 180 | 1.0 | 6.0 | 0.00 | 0.00 | 0.00 | 27 | 1011.0 |
| 20260506175034 | 73 | 231 | 0.0 | 6.0 | 0.00 | 0.00 | 0.00 | 26 | 1011.0 |
| 20260506174534 | 73 | 232 | 2.0 | 8.0 | 0.00 | 0.00 | 0.00 | 26 | 1011.0 |
| 20260506174035 | 73 | 127 | 1.0 | 5.0 | 0.00 | 0.00 | 0.00 | 28 | 1011.1 |
| 20260506173531 | 72 | 204 | 1.0 | 5.0 | 0.00 | 0.00 | 0.00 | 28 | 1011.2 |
| 20260506173028 | 72 | 132 | 1.0 | 5.0 | 0.00 | 0.00 | 0.00 | 27 | 1011.3 |
| 20260506172522 | 72 | 285 | 1.0 | 5.0 | 0.00 | 0.00 | 0.00 | 27 | 1011.3 |
| 20260506172031 | 72 | 331 | 1.0 | 5.0 | 0.00 | 0.00 | 0.00 | 29 | 1011.2 |
| 20260506171532 | 72 | 259 | 2.0 | 5.0 | 0.00 | 0.00 | 0.00 | 27 | 1011.3 |
| 20260506171037 | 72 | 156 | 1.0 | 5.0 | 0.00 | 0.00 | 0.00 | 29 | 1011.3 |
| 20260506170532 | 71 | 248 | 0.0 | 5.0 | 0.00 | 0.00 | 0.00 | 30 | 1011.4 |
| 20260506170031 | 70 | 289 | 0.0 | 7.0 | 0.00 | 0.00 | 0.00 | 30 | 1011.4 |
| 20260506165527 | 70 | 274 | 1.0 | 7.0 | 0.00 | 0.00 | 0.00 | 29 | 1011.5 |
| 20260506165032 | 70 | 273 | 1.0 | 6.0 | 0.00 | 0.00 | 0.00 | 30 | 1011.6 |
| 20260506164545 | 69 | 270 | 0.0 | 6.0 | 0.00 | 0.00 | 0.00 | 30 | 1011.5 |
| 20260506164036 | 69 | 133 | 0.0 | 6.0 | 0.00 | 0.00 | 0.00 | 30 | 1011.5 |
| 20260506163530 | 68 | 148 | 1.0 | 7.0 | 0.00 | 0.00 | 0.00 | 30 | 1011.5 |
| 20260506163028 | 68 | 246 | 1.0 | 7.0 | 0.00 | 0.00 | 0.00 | 32 | 1011.6 |
| 20260506162521 | 68 | 201 | 1.0 | 6.0 | 0.00 | 0.00 | 0.00 | 33 | 1011.5 |
| 20260506162039 | 68 | 239 | 2.0 | 6.0 | 0.00 | 0.00 | 0.00 | 32 | 1011.5 |
| 20260506161528 | 68 | 190 | 1.0 | 7.0 | 0.00 | 0.00 | 0.00 | 33 | 1011.4 |
| 20260506161025 | 68 | 226 | 1.0 | 5.0 | 0.00 | 0.00 | 0.00 | 33 | 1011.5 |
| 20260506160532 | 68 | 285 | 1.0 | 8.0 | 0.00 | 0.00 | 0.00 | 34 | 1011.5 |
| 20260506160033 | 68 | 196 | 1.0 | 8.0 | 0.00 | 0.00 | 0.00 | 33 | 1011.5 |
| 20260506155524 | 68 | 212 | 2.0 | 7.0 | 0.00 | 0.00 | 0.00 | 35 | 1011.5 |
| 20260506155035 | 67 | 260 | 0.0 | 4.0 | 0.00 | 0.00 | 0.00 | 35 | 1011.4 |
| 20260506154532 | 67 | 165 | 0.0 | 4.0 | 0.00 | 0.00 | 0.00 | 36 | 1011.3 |
| 20260506154026 | 66 | 214 | 0.0 | 4.0 | 0.00 | 0.00 | 0.00 | 37 | 1011.4 |
| 20260506153523 | 66 | 135 | 1.0 | 4.0 | 0.00 | 0.00 | 0.00 | 37 | 1011.4 |
| 20260506153035 | 65 | 248 | 0.0 | 5.0 | 0.00 | 0.00 | 0.00 | 39 | 1011.5 |
| 20260506152530 | 65 | 295 | 1.0 | 5.0 | 0.00 | 0.00 | 0.00 | 40 | 1011.5 |
| 20260506152024 | 64 | 217 | 0.0 | 4.0 | 0.00 | 0.00 | 0.00 | 42 | 1011.5 |
| 20260506151537 | 63 | 176 | 0.0 | 3.0 | 0.00 | 0.00 | 0.00 | 42 | 1011.4 |
| 20260506151031 | 63 | 229 | 0.0 | 5.0 | 0.00 | 0.00 | 0.00 | 43 | 1011.4 |
| 20260506150524 | 62 | 61 | 0.0 | 4.0 | 0.00 | 0.00 | 0.00 | 44 | 1011.4 |
| 20260506150042 | 62 | 173 | 0.0 | 3.0 | 0.00 | 0.00 | 0.00 | 48 | 1011.4 |
| 20260506145530 | 61 | 22 | 0.0 | 1.0 | 0.00 | 0.00 | 0.00 | 49 | 1011.4 |
| 20260506145026 | 60 | 135 | 0.0 | 4.0 | 0.00 | 0.00 | 0.00 | 51 | 1011.4 |
| 20260506144533 | 59 | 96 | 1.0 | 4.0 | 0.00 | 0.00 | 0.00 | 51 | 1011.3 |
| 20260506144029 | 58 | 115 | 0.0 | 3.0 | 0.00 | 0.00 | 0.00 | 53 | 1011.5 |
| 20260506143530 | 58 | 167 | 0.0 | 3.0 | 0.00 | 0.00 | 0.00 | 56 | 1011.5 |
| 20260506143038 | 57 | 131 | 0.0 | 3.0 | 0.00 | 0.00 | 0.00 | 57 | 1011.4 |
| 20260506142530 | 56 | 162 | 0.0 | 3.0 | 0.00 | 0.00 | 0.00 | 59 | 1011.5 |
| 20260506142025 | 55 | 115 | 1.0 | 3.0 | 0.00 | 0.00 | 0.00 | 61 | 1011.4 |
| 20260506141528 | 55 | 191 | 0.0 | 2.0 | 0.00 | 0.00 | 0.00 | 63 | 1011.4 |
| 20260506141032 | 54 | 113 | 0.0 | 2.0 | 0.00 | 0.00 | 0.00 | 65 | 1011.4 |
| 20260506140530 | 53 | 113 | 0.0 | 1.0 | 0.00 | 0.00 | 0.00 | 67 | 1011.4 |
| 20260506140039 | 52 | 114 | 0.0 | 1.0 | 0.00 | 0.00 | 0.00 | 69 | 1011.3 |
| 20260506135533 | 51 | 114 | 0.0 | 1.0 | 0.00 | 0.00 | 0.00 | 73 | 1011.2 |
| 20260506135028 | 49 | 125 | 0.0 | 0.0 | 0.00 | 0.00 | 0.00 | 76 | 1011.2 |
| 20260506134534 | 49 | 127 | 0.0 | 0.0 | 0.00 | 0.00 | 0.00 | 77 | 1011.2 |
| 20260506134032 | 48 | 127 | 0.0 | 0.0 | 0.00 | 0.00 | 0.00 | 79 | 1011.2 |
| 20260506133526 | 47 | 127 | 0.0 | 0.0 | 0.00 | 0.00 | 0.00 | 80 | 1011.2 |
| 20260506133021 | 47 | 127 | 0.0 | 0.0 | 0.00 | 0.00 | 0.00 | 80 | 1011.1 |
| 20260506132534 | 46 | 127 | 0.0 | 0.0 | 0.00 | 0.00 | 0.00 | 79 | 1011.1 |
| 20260506132027 | 46 | 127 | 0.0 | 0.0 | 0.00 | 0.00 | 0.00 | 79 | 1011.0 |
| 20260506131522 | 46 | 127 | 0.0 | 0.0 | 0.00 | 0.00 | 0.00 | 80 | 1010.9 |
| 20260506131033 | 46 | 127 | 0.0 | 0.0 | 0.00 | 0.00 | 0.00 | 80 | 1010.8 |
| 20260506130530 | 45 | 127 | 0.0 | 0.0 | 0.00 | 0.00 | 0.00 | 80 | 1010.9 |
| 20260506130023 | 45 | 127 | 0.0 | 0.0 | 0.00 | 0.00 | 0.00 | 80 | 1010.8 |
| 20260506125532 | 44 | 127 | 0.0 | 0.0 | 0.00 | 0.00 | 0.00 | 80 | 1010.7 |
| 20260506125027 | 44 | 127 | 0.0 | 0.0 | 0.00 | 0.00 | 0.00 | 79 | 1010.7 |
| 20260506124524 | 45 | 127 | 0.0 | 0.0 | 0.00 | 0.00 | 0.00 | 79 | 1010.6 |
| 20260506124034 | 45 | 127 | 0.0 | 0.0 | 0.00 | 0.00 | 0.00 | 78 | 1010.6 |
| 20260506123531 | 45 | 127 | 0.0 | 0.0 | 0.00 | 0.00 | 0.00 | 77 | 1010.4 |
| 20260506123029 | 45 | 127 | 0.0 | 0.0 | 0.00 | 0.00 | 0.00 | 77 | 1010.4 |
| 20260506122534 | 45 | 127 | 0.0 | 0.0 | 0.00 | 0.00 | 0.00 | 76 | 1010.3 |
| 20260506122030 | 45 | 127 | 0.0 | 0.0 | 0.00 | 0.00 | 0.00 | 76 | 1010.2 |
| 20260506121525 | 45 | 127 | 0.0 | 1.0 | 0.00 | 0.00 | 0.00 | 77 | 1010.2 |
| 20260506121036 | 45 | 127 | 0.0 | 1.0 | 0.00 | 0.00 | 0.00 | 77 | 1010.1 |
| 20260506120530 | 45 | 127 | 0.0 | 0.0 | 0.00 | 0.00 | 0.00 | 77 | 1010.0 |
| 20260506120047 | 45 | 127 | 0.0 | 0.0 | 0.00 | 0.00 | 0.00 | 76 | 1009.9 |
| 20260506115533 | 46 | 127 | 0.0 | 0.0 | 0.00 | 0.00 | 0.00 | 76 | 1009.8 |
| 20260506115030 | 46 | 127 | 0.0 | 0.0 | 0.00 | 0.00 | 0.00 | 76 | 1009.8 |
| 20260506114526 | 46 | 127 | 0.0 | 0.0 | 0.00 | 0.00 | 0.00 | 75 | 1009.8 |
| 20260506114022 | 46 | 127 | 0.0 | 0.0 | 0.00 | 0.00 | 0.00 | 75 | 1009.7 |
| 20260506113533 | 46 | 127 | 0.0 | 0.0 | 0.00 | 0.00 | 0.00 | 74 | 1009.8 |
| 20260506113028 | 46 | 127 | 0.0 | 0.0 | 0.00 | 0.00 | 0.00 | 74 | 1009.7 |
| 20260506112522 | 47 | 127 | 0.0 | 0.0 | 0.00 | 0.00 | 0.00 | 73 | 1009.7 |
| 20260506112032 | 47 | 127 | 0.0 | 0.0 | 0.00 | 0.00 | 0.00 | 73 | 1009.6 |
| 20260506111529 | 47 | 127 | 0.0 | 0.0 | 0.00 | 0.00 | 0.00 | 72 | 1009.6 |
| 20260506111027 | 47 | 127 | 0.0 | 0.0 | 0.00 | 0.00 | 0.00 | 72 | 1009.5 |
| 20260506110534 | 47 | 127 | 0.0 | 0.0 | 0.00 | 0.00 | 0.00 | 71 | 1009.5 |
| 20260506110030 | 47 | 127 | 0.0 | 0.0 | 0.00 | 0.00 | 0.00 | 71 | 1009.4 |
| 20260506105527 | 47 | 127 | 0.0 | 0.0 | 0.00 | 0.00 | 0.00 | 71 | 1009.4 |
| 20260506105036 | 47 | 127 | 0.0 | 1.0 | 0.00 | 0.00 | 0.00 | 72 | 1009.3 |
| 20260506104539 | 47 | 139 | 0.0 | 0.0 | 0.00 | 0.00 | 0.00 | 72 | 1009.3 |
| 20260506104029 | 47 | 139 | 0.0 | 0.0 | 0.00 | 0.00 | 0.00 | 72 | 1009.2 |
| 20260506103039 | 47 | 139 | 0.0 | 0.0 | 0.00 | 0.00 | 0.00 | 71 | 1009.1 |
| 20260506102531 | 48 | 139 | 0.0 | 0.0 | 0.00 | 0.00 | 0.00 | 71 | 1009.0 |
| 20260506102037 | 48 | 139 | 0.0 | 1.0 | 0.00 | 0.00 | 0.00 | 70 | 1009.0 |
| 20260506101531 | 48 | 139 | 0.0 | 0.0 | 0.00 | 0.00 | 0.00 | 70 | 1008.9 |
| 20260506101026 | 48 | 140 | 0.0 | 0.0 | 0.00 | 0.00 | 0.00 | 69 | 1008.9 |
| 20260506100520 | 48 | 139 | 0.0 | 0.0 | 0.00 | 0.00 | 0.00 | 69 | 1008.9 |
| 20260506100032 | 48 | 139 | 0.0 | 0.0 | 0.00 | 0.00 | 0.00 | 69 | 1008.8 |
| 20260506095526 | 48 | 139 | 0.0 | 0.0 | 0.00 | 0.00 | 0.00 | 68 | 1008.6 |
| 20260506095025 | 48 | 140 | 0.0 | 0.0 | 0.00 | 0.00 | 0.00 | 67 | 1008.6 |
| 20260506094532 | 49 | 139 | 0.0 | 0.0 | 0.00 | 0.00 | 0.00 | 66 | 1008.6 |
| 20260506094026 | 49 | 139 | 0.0 | 0.0 | 0.00 | 0.00 | 0.00 | 66 | 1008.5 |
| 20260506093522 | 49 | 139 | 0.0 | 0.0 | 0.00 | 0.00 | 0.00 | 65 | 1008.4 |
| 20260506093033 | 49 | 139 | 0.0 | 0.0 | 0.00 | 0.00 | 0.00 | 64 | 1008.4 |
| 20260506092528 | 50 | 139 | 0.0 | 0.0 | 0.00 | 0.00 | 0.00 | 64 | 1008.4 |
| 20260506092036 | 50 | 139 | 0.0 | 0.0 | 0.00 | 0.00 | 0.00 | 63 | 1008.3 |
| 20260506091530 | 51 | 139 | 0.0 | 0.0 | 0.00 | 0.00 | 0.00 | 60 | 1008.3 |
| 20260506091026 | 51 | 139 | 0.0 | 0.0 | 0.00 | 0.00 | 0.00 | 59 | 1008.3 |
| 20260506090523 | 51 | 139 | 0.0 | 0.0 | 0.00 | 0.00 | 0.00 | 59 | 1008.3 |
| 20260506090034 | 52 | 139 | 0.0 | 0.0 | 0.00 | 0.00 | 0.00 | 59 | 1008.2 |
| 20260506085532 | 52 | 139 | 0.0 | 1.0 | 0.00 | 0.00 | 0.00 | 58 | 1008.2 |
| 20260506085035 | 52 | 139 | 0.0 | 1.0 | 0.00 | 0.00 | 0.00 | 58 | 1008.2 |
| 20260506084607 | 53 | 139 | 0.0 | 0.0 | 0.00 | 0.00 | 0.00 | 57 | 1008.1 |
| 20260506084027 | 53 | 139 | 0.0 | 0.0 | 0.00 | 0.00 | 0.00 | 55 | 1008.1 |
| 20260506083536 | 53 | 139 | 0.0 | 0.0 | 0.00 | 0.00 | 0.00 | 55 | 1008.1 |
| 20260506083029 | 53 | 140 | 0.0 | 0.0 | 0.00 | 0.00 | 0.00 | 55 | 1008.0 |
| 20260506082524 | 53 | 139 | 0.0 | 0.0 | 0.00 | 0.00 | 0.00 | 55 | 1008.1 |
| 20260506082035 | 53 | 139 | 0.0 | 0.0 | 0.00 | 0.00 | 0.00 | 55 | 1008.2 |
| 20260506081540 | 53 | 139 | 0.0 | 0.0 | 0.00 | 0.00 | 0.00 | 55 | 1008.2 |
| 20260506081027 | 53 | 140 | 0.0 | 0.0 | 0.00 | 0.00 | 0.00 | 56 | 1008.2 |
| 20260506080536 | 53 | 139 | 0.0 | 0.0 | 0.00 | 0.00 | 0.00 | 55 | 1008.1 |
| 20260506073031 | 54 | 139 | 0.0 | 1.0 | 0.00 | 0.00 | 0.00 | 52 | 1007.9 |
| 20260506072524 | 54 | 140 | 0.0 | 1.0 | 0.00 | 0.00 | 0.00 | 52 | 1007.8 |
| 20260506072018 | 54 | 120 | 0.0 | 0.0 | 0.00 | 0.00 | 0.00 | 51 | 1007.7 |
| 20260506071535 | 55 | 120 | 0.0 | 0.0 | 0.00 | 0.00 | 0.00 | 50 | 1007.7 |
| 20260506071029 | 55 | 120 | 0.0 | 0.0 | 0.00 | 0.00 | 0.00 | 48 | 1007.6 |
| 20260506070526 | 55 | 120 | 0.0 | 0.0 | 0.00 | 0.00 | 0.00 | 49 | 1007.6 |
| 20260506062029 | 59 | 117 | 0.0 | 0.0 | 0.00 | 0.00 | 0.00 | 37 | 1007.0 |
| 20260506061524 | 59 | 117 | 0.0 | 0.0 | 0.00 | 0.00 | 0.00 | 37 | 1007.0 |
| 20260506061035 | 59 | 117 | 0.0 | 1.0 | 0.00 | 0.00 | 0.00 | 37 | 1006.9 |
| 20260506060531 | 59 | 120 | 0.0 | 1.0 | 0.00 | 0.00 | 0.00 | 37 | 1006.9 |
| 20260506051030 | 60 | 160 | 0.0 | 1.0 | 0.00 | 0.00 | 0.00 | 39 | 1006.3 |
| 20260506050524 | 59 | 235 | 0.0 | 1.0 | 0.00 | 0.00 | 0.00 | 39 | 1006.2 |
| 20260506045026 | 60 | 173 | 0.0 | 0.0 | 0.00 | 0.00 | 0.00 | 37 | 1006.1 |
| 20260506044521 | 60 | 173 | 0.0 | 0.0 | 0.00 | 0.00 | 0.00 | 36 | 1006.1 |
| 20260506044031 | 61 | 174 | 0.0 | 0.0 | 0.00 | 0.00 | 0.00 | 35 | 1006.1 |
| 20260506043533 | 62 | 173 | 0.0 | 0.0 | 0.00 | 0.00 | 0.00 | 35 | 1006.0 |
| 20260506043040 | 62 | 173 | 0.0 | 0.0 | 0.00 | 0.00 | 0.00 | 34 | 1005.9 |
| 20260506042530 | 63 | 174 | 0.0 | 1.0 | 0.00 | 0.00 | 0.00 | 34 | 1005.8 |
| 20260506042027 | 63 | 173 | 0.0 | 1.0 | 0.00 | 0.00 | 0.00 | 33 | 1005.7 |
| 20260506041523 | 64 | 195 | 0.0 | 0.0 | 0.00 | 0.00 | 0.00 | 33 | 1005.7 |
| 20260506041032 | 64 | 195 | 0.0 | 1.0 | 0.00 | 0.00 | 0.00 | 31 | 1005.6 |
| 20260506040533 | 65 | 195 | 0.0 | 1.0 | 0.00 | 0.00 | 0.00 | 30 | 1005.6 |
| 20260506040038 | 65 | 211 | 0.0 | 2.0 | 0.00 | 0.00 | 0.00 | 30 | 1005.6 |
| 20260506035531 | 65 | 212 | 0.0 | 1.0 | 0.00 | 0.00 | 0.00 | 30 | 1005.4 |
| 20260506035039 | 65 | 196 | 0.0 | 4.0 | 0.00 | 0.00 | 0.00 | 30 | 1005.2 |
| 20260506034534 | 65 | 217 | 0.0 | 4.0 | 0.00 | 0.00 | 0.00 | 30 | 1005.1 |
| 20260506034027 | 65 | 138 | 0.0 | 1.0 | 0.00 | 0.00 | 0.00 | 30 | 1005.0 |
| 20260506033525 | 65 | 219 | 0.0 | 1.0 | 0.00 | 0.00 | 0.00 | 30 | 1004.9 |
| 20260506033034 | 65 | 217 | 0.0 | 1.0 | 0.00 | 0.00 | 0.00 | 31 | 1004.9 |
| 20260506032529 | 66 | 225 | 0.0 | 1.0 | 0.00 | 0.00 | 0.00 | 30 | 1004.7 |
| 20260506032026 | 66 | 225 | 0.0 | 0.0 | 0.00 | 0.00 | 0.00 | 31 | 1004.5 |
| 20260506031522 | 67 | 250 | 0.0 | 1.0 | 0.00 | 0.00 | 0.00 | 31 | 1004.5 |
| 20260506031032 | 67 | 219 | 0.0 | 1.0 | 0.00 | 0.00 | 0.00 | 30 | 1004.4 |
| 20260506030529 | 67 | 210 | 0.0 | 0.0 | 0.00 | 0.00 | 0.00 | 30 | 1004.3 |
| 20260506030022 | 68 | 210 | 0.0 | 1.0 | 0.00 | 0.00 | 0.00 | 29 | 1004.2 |
| 20260506025532 | 69 | 201 | 0.0 | 2.0 | 0.00 | 0.00 | 0.00 | 28 | 1004.1 |
| 20260506025028 | 69 | 184 | 0.0 | 2.0 | 0.00 | 0.00 | 0.00 | 26 | 1004.0 |
| 20260506024522 | 69 | 242 | 0.0 | 2.0 | 0.00 | 0.00 | 0.00 | 27 | 1004.0 |
| 20260506024033 | 70 | 155 | 0.0 | 3.0 | 0.00 | 0.00 | 0.00 | 26 | 1003.9 |
| 20260506023531 | 70 | 195 | 0.0 | 5.0 | 0.00 | 0.00 | 0.00 | 26 | 1003.9 |
| 20260506023038 | 70 | 203 | 0.0 | 3.0 | 0.00 | 0.00 | 0.00 | 26 | 1003.8 |
| 20260506022535 | 70 | 174 | 0.0 | 5.0 | 0.00 | 0.00 | 0.00 | 26 | 1003.8 |
| 20260506022030 | 70 | 255 | 1.0 | 5.0 | 0.00 | 0.00 | 0.00 | 26 | 1003.7 |
| 20260506021534 | 70 | 218 | 0.0 | 4.0 | 0.00 | 0.00 | 0.00 | 26 | 1003.7 |
| 20260506021026 | 70 | 204 | 0.0 | 4.0 | 0.00 | 0.00 | 0.00 | 26 | 1003.5 |
| 20260506020533 | 71 | 249 | 0.0 | 4.0 | 0.00 | 0.00 | 0.00 | 26 | 1003.5 |
| 20260506020029 | 71 | 212 | 0.0 | 2.0 | 0.00 | 0.00 | 0.00 | 26 | 1003.4 |
| 20260506015528 | 71 | 226 | 0.0 | 4.0 | 0.00 | 0.00 | 0.00 | 26 | 1003.4 |
| 20260506015038 | 71 | 228 | 0.0 | 4.0 | 0.00 | 0.00 | 0.00 | 25 | 1003.5 |
| 20260506014531 | 72 | 264 | 0.0 | 4.0 | 0.00 | 0.00 | 0.00 | 26 | 1003.4 |
| 20260506014026 | 72 | 300 | 0.0 | 4.0 | 0.00 | 0.00 | 0.00 | 25 | 1003.2 |
| 20260506013533 | 72 | 158 | 1.0 | 4.0 | 0.00 | 0.00 | 0.00 | 26 | 1003.3 |
| 20260506013034 | 72 | 287 | 0.0 | 4.0 | 0.00 | 0.00 | 0.00 | 26 | 1003.2 |
| 20260506012524 | 72 | 255 | 0.0 | 3.0 | 0.00 | 0.00 | 0.00 | 27 | 1003.2 |
| 20260506012043 | 72 | 267 | 0.0 | 4.0 | 0.00 | 0.00 | 0.00 | 27 | 1003.2 |
| 20260506011530 | 72 | 297 | 1.0 | 6.0 | 0.00 | 0.00 | 0.00 | 27 | 1003.1 |
| 20260506011022 | 73 | 39 | 1.0 | 4.0 | 0.00 | 0.00 | 0.00 | 29 | 1003.1 |
| 20260506010535 | 73 | 100 | 0.0 | 4.0 | 0.00 | 0.00 | 0.00 | 31 | 1003.2 |
| 20260506010032 | 73 | 33 | 0.0 | 4.0 | 0.00 | 0.00 | 0.00 | 32 | 1003.2 |
| 20260506005525 | 73 | 264 | 0.0 | 5.0 | 0.00 | 0.00 | 0.00 | 33 | 1003.1 |
| 20260506005035 | 73 | 274 | 1.0 | 5.0 | 0.00 | 0.00 | 0.00 | 32 | 1003.1 |
| 20260506004530 | 73 | 242 | 0.0 | 2.0 | 0.00 | 0.00 | 0.00 | 33 | 1003.1 |
| 20260506004035 | 74 | 227 | 0.0 | 4.0 | 0.00 | 0.00 | 0.00 | 32 | 1003.0 |
| 20260506003530 | 74 | 291 | 0.0 | 4.0 | 0.00 | 0.00 | 0.00 | 32 | 1003.1 |
| 20260506003026 | 74 | 228 | 0.0 | 3.0 | 0.00 | 0.00 | 0.00 | 32 | 1002.9 |
| 20260506002535 | 74 | 231 | 0.0 | 4.0 | 0.00 | 0.00 | 0.00 | 32 | 1003.0 |
| 20260506002031 | 74 | 285 | 0.0 | 4.0 | 0.00 | 0.00 | 0.00 | 29 | 1003.1 |
| 20260506001526 | 74 | 238 | 0.0 | 2.0 | 0.00 | 0.00 | 0.00 | 30 | 1002.9 |
| 20260506001022 | 74 | 255 | 0.0 | 5.0 | 0.00 | 0.00 | 0.00 | 30 | 1002.8 |
| 20260506000532 | 74 | 89 | 0.0 | 5.0 | 0.00 | 0.00 | 0.00 | 30 | 1002.9 |
| 20260506000027 | 74 | 356 | 1.0 | 3.0 | 0.00 | 0.00 | 0.00 | 30 | 1002.8 |
| 20260505235539 | 75 | 19 | 0.0 | 2.0 | 0.00 | 0.00 | 0.00 | 33 | 1002.9 |
| 20260505235031 | 75 | 257 | 0.0 | 1.0 | 0.00 | 0.00 | 0.00 | 32 | 1002.9 |
| 20260505234524 | 75 | 242 | 0.0 | 2.0 | 0.00 | 0.00 | 0.00 | 31 | 1002.9 |
| 20260505234037 | 75 | 224 | 0.0 | 4.0 | 0.00 | 0.00 | 0.00 | 30 | 1002.9 |
| 20260505233530 | 75 | 200 | 0.0 | 4.0 | 0.00 | 0.00 | 0.00 | 31 | 1003.0 |
| 20260505233027 | 76 | 269 | 1.0 | 4.0 | 0.00 | 0.00 | 0.00 | 29 | 1003.0 |
| 20260505232535 | 76 | 114 | 0.0 | 6.0 | 0.00 | 0.00 | 0.00 | 30 | 1002.9 |
| 20260505232031 | 76 | 204 | 1.0 | 6.0 | 0.00 | 0.00 | 0.00 | 29 | 1003.0 |
| 20260505231541 | 76 | 270 | 0.0 | 6.0 | 0.00 | 0.00 | 0.00 | 31 | 1003.0 |
| 20260505231023 | 76 | 260 | 1.0 | 6.0 | 0.00 | 0.00 | 0.00 | 30 | 1003.1 |
| 20260505230535 | 75 | 204 | 1.0 | 8.0 | 0.00 | 0.00 | 0.00 | 30 | 1003.2 |
| 20260505230029 | 76 | 232 | 2.0 | 8.0 | 0.00 | 0.00 | 0.00 | 29 | 1003.2 |
| 20260505225523 | 77 | 286 | 3.0 | 8.0 | 0.00 | 0.00 | 0.00 | 29 | 1003.2 |
| 20260505225033 | 77 | 15 | 1.0 | 7.0 | 0.00 | 0.00 | 0.00 | 30 | 1003.4 |
| 20260505224527 | 76 | 226 | 1.0 | 7.0 | 0.00 | 0.00 | 0.00 | 29 | 1003.3 |
| 20260505224022 | 77 | 238 | 1.0 | 6.0 | 0.00 | 0.00 | 0.00 | 30 | 1003.5 |
| 20260505223532 | 77 | 146 | 1.0 | 6.0 | 0.00 | 0.00 | 0.00 | 29 | 1003.5 |
| 20260505223028 | 77 | 205 | 1.0 | 5.0 | 0.00 | 0.00 | 0.00 | 30 | 1003.4 |
| 20260505222537 | 77 | 153 | 1.0 | 6.0 | 0.00 | 0.00 | 0.00 | 31 | 1003.7 |
| 20260505222031 | 77 | 34 | 1.0 | 6.0 | 0.00 | 0.00 | 0.00 | 30 | 1003.6 |
| 20260505221525 | 78 | 252 | 1.0 | 7.0 | 0.00 | 0.00 | 0.00 | 30 | 1003.7 |
| 20260505221036 | 78 | 269 | 2.0 | 7.0 | 0.00 | 0.00 | 0.00 | 31 | 1003.8 |
| 20260505220531 | 77 | 253 | 1.0 | 7.0 | 0.00 | 0.00 | 0.00 | 32 | 1003.9 |
| 20260505220026 | 76 | 160 | 2.0 | 11.0 | 0.00 | 0.00 | 0.00 | 31 | 1004.0 |
| 20260505215523 | 77 | 58 | 1.0 | 11.0 | 0.00 | 0.00 | 0.00 | 31 | 1004.1 |
| 20260505215031 | 77 | 269 | 1.0 | 6.0 | 0.00 | 0.00 | 0.00 | 32 | 1004.1 |